Location: Hurstbourne Priors
(51.2000°N, 1.3667°W)
Time: 21:17:35
(UTC+00:00)

Altair - Pass Details

Date: 16 April 2021
Orbit: 1501 x 1683 km, 47.2° (Epoch: 13 May)

Event Time Altitude Azimuth Distance (km) Brightness Sun altitude
Rises 14:55:09 0° 283° (WNW) 4,679 10.6 36.5°
Reaches altitude 10° 15:01:16 10° 253° (WSW) 3,664 10.7 35.7°
Maximum altitude 15:03:42 11° 237° (WSW) 3,553 10.9 35.4°
Drops below altitude 10° 15:06:08 10° 221° (SW) 3,647 10.7 35.0°
Sets 15:12:13 0° 190° (S) 4,622 10.5 34.2°
